Regional Weather Roundup
Issued by NWS Grand Forks, ND

Home | Current Version | Previous Version | Graphics & Text | Print | Product List | Glossary On
Versions: 1 2 3 4 5 6 7 8 9 10 11 12 13 14 15 16 17 18 19 20 21 22 23 24 25 26 27 28 29 30 31 32 33 34 35 36 37 38 39 40 41 42 43 44 45 46 47 48 49 50
000
ASUS43 KFGF 310410
RWRFGF
PRAIRIE TO PINES  WEATHER ROUNDUP
NATIONAL WEATHER SERVICE EASTERN NORTH DAKOTA/GRAND FORKS ND
1000 PM CST FRI JAN 30 2015

 **SATELLITE DATA USED TO AUGMENT SKY COVER AT AUTOMATED STATIONS**
 *****  WEATHER ACROSS EASTERN NORTH DAKOTA  *****

CITY           SKY/WX    TMP DP  RH WIND       PRES   REMARKS
GRAND FORKS    CLOUDY    24  17  74 N18       30.19R WCI  10
GRAND FRKS AFB CLOUDY    23  17  77 N16       30.20R WCI  10
GRAND FRKS NWS   N/A     23 N/A N/A N13         N/A  WCI  11
DEVILS LAKE    CLOUDY    21  16  79 N15       30.20R WCI   8
FARGO          MOCLDY    27  22  81 NW10      30.16R WCI  17
WAHPETON ARPT  FAIR      27  23  86 NW9       30.15S WCI  17
$$

 ***** WEATHER ACROSS CENTRAL AND WESTERN NORTH DAKOTA  *****

CITY           SKY/WX    TMP DP  RH WIND       PRES   REMARKS
BISMARCK       CLEAR     25  24  96 CALM      30.19F
MINOT          CLOUDY    24  20  84 N10       30.21R WCI  14
JAMESTOWN      CLOUDY    26  23  88 N15       30.17S WCI  14
MINOT AFB      CLOUDY    24  24  99 N12       30.22R WCI  13
GARRISON         N/A     24  22  91 NE12      30.19S WCI  13
WILLISTON      CLOUDY    26  22  84 NE13      30.20S WCI  15
DICKINSON      CLEAR     25  21  85 NW3       30.12F
HETTINGER      PTCLDY    25  21  85 CALM      30.14F
$$

 *****  OTHER AIRPORT OBSERVATIONS IN OUR AREA  *****

CITY           SKY/WX    TMP DP  RH WIND       PRES   REMARKS
WALHALLA         N/A     16  16 100 N14       30.25R WCI   1
GRAFTON AIRPOR NOT AVBL
VALLEY CITY AR MIX PCPN  27  27 100 N15G23    30.16S WCI  15
CANDO          CLOUDY    21  18  86 N12G17    30.22R WCI   9
CAVALIER APRT  CLOUDY    18  14  86 N15       30.23R WCI   3
GWINNER        CLEAR     30  30 100 N16       30.16S WCI  19
ROLLA          CLOUDY    18  18 100 NE13G18   30.21R WCI   4
 ***** THE ABOVE OBSERVATIONS ARE NON NWS ARE NOT QUALITY
       CONTROLLED AND MAY MIS-REPORT RAIN FOR SNOW...
$$

  *****  WEATHER ACROSS NORTHERN MINNESOTA  *****

CITY           SKY/WX    TMP DP  RH WIND       PRES   REMARKS
FLAG ISLAND    CLOUDY    12  10  92 NW6       30.13R WCI   3
WARROAD        CLOUDY    19  16  86 NW5       30.14R WCI  13
ROSEAU         CLOUDY    21  16  79 NW12      30.14R WCI   9
HALLOCK        CLOUDY    19  16  86 NW16G24   30.20R WCI   5
THF RVR FALLS  CLOUDY    25  19  80 NW16      30.14R WCI  12
BAUDETTE       CLOUDY    17  11  77 CALM      30.10F
WASKISH        CLOUDY    19  12  73 CALM      30.10F
CROOKSTON      CLOUDY    25  19  80 N21       30.18R WCI  10
STEPHEN NDAWN    N/A     19  16  86 N14         N/A  WCI   6
GREENBUSH NDAW   N/A     19  18  93 NW14        N/A  WCI   6
$$
  *****  WEATHER ACROSS CENTRAL AND WEST MINNESOTA  *****

CITY           SKY/WX    TMP DP  RH WIND       PRES   REMARKS
FOSSTON        CLOUDY    19  18  93 SW6       30.12R WCI  11
BEMIDJI        CLOUDY    23  19  83 CALM      30.10R
PARK RAPIDS    PTCLDY    20  16  84 S5        30.09S WCI  13
ELBOW LAKE     FAIR      21  21  98 S3        30.12F
WADENA         CLEAR     19  18  93 S3        30.10F
DETROIT LAKES  CLEAR     21  19  93 CALM      30.12S
MOORHEAD       CLEAR     25  25 100 NW9       30.16S WCI  15
FERGUS FALLS   CLEAR     21  19  93 SW3       30.16S
MORRIS MN      CLEAR     25  23  93 W5        30.12F WCI  19
STAPLES        PTCLDY    19  18  93 S5        30.12S WCI  13
$$
  *****  WEATHER ELSEWHERE ACROSS MINNESOTA  *****

CITY           SKY/WX    TMP DP  RH WIND       PRES   REMARKS
DULUTH         CLOUDY    17   7  64 SW7       30.12F WCI   8
INTRNTL FALLS  CLOUDY    14   9  80 SW3       30.10F
ELY            LGT SNOW  12   9  85 S5        30.10F WCI   4
CLOQUET        CLOUDY    18   9  68 S3        30.13F
WHEATON        CLEAR     27  25  93 W5        30.16F WCI  21
BRAINERD       CLOUDY    24  18  77 S6        30.13F WCI  17
HIBBING        CLOUDY    16   6  65 SE3       30.12F
ALEXANDRIA     CLEAR     20  18  92 SW6       30.12F WCI  12
SAINT CLOUD    CLOUDY    25  19  78 SE6       30.15F WCI  18
MINNEAPOLIS    PTCLDY    27  19  72 S8        30.19F WCI  19
$$

  *****  WEATHER ACROSS SOUTH DAKOTA  *****

CITY           SKY/WX    TMP DP  RH WIND       PRES   REMARKS
SIOUX FALLS    CLEAR     33  27  78 SW7       30.15F
BROOKINGS      NOT AVBL
WATERTOWN      CLEAR     25  23  92 CALM      30.11F
HURON          CLEAR     25  23  92 CALM      30.14S
SISSETON         N/A     31  28  89 NW9       30.13F WCI  23
ABERDEEN       CLEAR     28  24  85 N8        30.15F WCI  20
MITCHELL       CLEAR     29  25  85 NW7       30.14S WCI  22
PIERRE         PTCLDY    26  20  77 CALM      30.13S
MOBRIDGE       CLEAR     26  22  84 N6        30.12S WCI  19
RAPID CITY     CLOUDY    29  22  75 N9        30.12F WCI  20
$$

  *****  SOME WEATHER IN NEARBY STATES *****

CITY           SKY/WX    TMP DP  RH WIND       PRES   REMARKS
GLASGOW MT     CLEAR     31  27  85 E12       30.10F WCI  22
GREAT FALLS MT CLEAR     32  19  58 SW9       30.01F WCI  24
CHEYENNE WY    CLOUDY    35  20  54 N10       30.07S
SCOTTSBLUFF NE CLOUDY    35  28  75 N7        30.08F
OMAHA NE       CLOUDY    33  25  72 S12       30.28F WCI  24
DES MOINES IA  MOCLDY    28  15  58 S7        30.30F WCI  21
DAVENPORT IA   PTCLDY    21  14  74 S6        30.36F WCI  13
CHICAGO IL     PTCLDY    21  13  71 SW3       30.37F
EAU CLAIRE WI  MOCLDY    17   6  62 SE5       30.23F WCI  10
LA CROSSE WI   CLOUDY    25  12  58 S10       30.28S WCI  15
$$

  *****  SOME NATIONAL WEATHER *****

CITY           SKY/WX    TMP DP  RH WIND       PRES   REMARKS
LA GUARDIA NY  PTCLDY    21   8  57 NW28G43   30.00F WCI   3
RALEIGH NC     FAIR      31   6  35 VRB5      30.31R
ATLANTA GA     PTCLDY    37  19  48 N8        30.34R
NEW ORLEANS LA MOCLDY    50  39  66 NE8       30.35S
OKLAHOMA CITY  CLOUDY    44  24  45 E7        30.32F
ALBUQUERQUE NM CLOUDY    37  32  82 E10       30.05F
SALT LAKE CITY CLOUDY    41  36  82 W8        29.98S
LOS ANGELES CA PTCLDY    60  56  86 NE5       29.86R
BOISE ID       CLEAR     34  29  82 CALM      30.15S
SEATTLE WA     PTCLDY    37  36  96 CALM      30.27R FOG
$$

*** WEATHER ACROSS MANITOBA...SASKATCHEWAN AND ONTARIO ***
                ***ONTARIO***

CITY           SKY/WX    TMP DP  RH WIND       PRES   REMARKS
GERALDTON      CLEAR      0  -6  78 SW5       30.10F WCI -10
THUNDER BAY    LGT SNOW   9   7  92 W2        30.18F VSB 1
SIOUX LOOKOUT  LGT SNOW   7   3  85 W5        30.07F WCI  -2
TORONTO        PTCLDY     3  -4  72 W8        30.36F WCI -10
BIG TROUT LK   LGT SNOW  -2  -8  78 N12G22    30.04R WCI -20
PICKLE LAKE    NOT AVBL
DRYDEN         FLURRIES   9   5  85 W10       30.07F WCI  -6
KENORA         FLURRIES   9   7  92 W3        30.10F
$$
                *** MANITOBA***

CITY           SKY/WX    TMP DP  RH WIND       PRES   REMARKS
BRANDON        FLURRIES  16  12  86 NE7       30.28R WCI   6
DAUPHIN        CLEAR      3   0  85 NW6       30.36R WCI  -8
ISLAND LAKE    PTCLDY    -9 -17  70 N13G20    30.24R WCI -30
PILOT MOUND      N/A     14  10  85 N17         N/A  WCI  -3
THE PAS        CLEAR     -8 -17  65 N9        30.44R WCI -25
THOMPSON       CRYSTALS -20 -31  57 NW14G20   30.39R WCI -44
WINNIPEG       CLOUDY    14   7  73 N20       30.26R WCI  -3
LYNN LAKE      CLEAR    -24 -33  62 NW10G18   30.45R WCI -46
CHURCHILL      BLWGSNOW -26 -31  75 NW29G38   30.23S VSB 1/4 WCI -60
$$
                ***SASKATCHEWAN***

CITY           SKY/WX    TMP DP  RH WIND       PRES   REMARKS
ESTEVAN        FLURRIES  21  18  86 N7G20     30.23R WCI  13
KINDERSLEY     LGT SNOW  19  16  86 NE12G17   30.24R FOG     WCI   7
LLOYDMINSTER   CLOUDY     9   0  66 NE18      30.37R WCI -10
PRINCE ALBERT  CLOUDY     3  -6  66 NE12G22   30.44R WCI -13
REGINA         FLURRIES  16  12  86 NE13      30.26R WCI   2
YORKTON        MOCLDY     5   1  85 N10       30.32R WCI -10
N. BATTLEFORD  FLURRIES  12   7  79 NE16      30.39R WCI  -4
LA RONGE       CLEAR     -9 -18  64 N9        30.53R WCI -27
SASKATOON      FLURRIES  12   5  73 NE14G21   30.38R WCI  -3
SWIFT CURRENT  SNOW      19  18  93 E15G22    30.16R VSB 3/8 WCI   5
$$
NOTE: THESE ARE AUTOMATED STATIONS WITH LIMITED QUALITY CONTROL
      "FAIR" INDICATES FEW OR NO CLOUDS BELOW 12,000 FEET WITH NO
      SIGNIFICANT WEATHER AND/OR OBSTRUCTIONS TO VISIBILITY.
      SKY/WX - SKY CONDITION AND SIGNIFICANT WEATHER.
      TMP - AIR TEMPERATURE.    DP   - DEWPOINT TEMPERATURE.
      RH  - RELATIVE HUMIDITY.  PRES - PRESSURE.
      HX  - HEAT INDEX.         WCI  - WIND CHILL INDEX.
$


USA.gov is the U.S. government's official web portal to all federal, state and local government web resources and services.